User: anonymous   Login
Location: ????????
(54.8751°N, 38.5756°E)
Time: 06:10:27
(UTC+00:00)
Language:

SWAS - Orbit

View from above orbital plane
View from above orbital plane
View from above satellite
View from above satellite

Ground track
Ground track

The orbit data is extracted from the following two-line orbital elements,

1 25560U 98071A   24173.68869306  .00004450  00000-0  36035-3 0  9999
2 25560  69.8994 287.0044 0009567 279.1907  80.8170 15.00421027388063
Epoch (UTC): 21 June 2024 16:31:43
Eccentricity: 0.0009567
inclination: 69.8994°
perigee height: 559 km
apogee height: 572 km
right ascension of ascending node: 287.0044°
argument of perigee: 279.1907°
revolutions per day: 15.00421027
mean anomaly at epoch: 80.8170°
orbit number at epoch: 38806

The dashed part of the orbit path shows where the satellite is in the earth's shadow,  

DLR